Central Park, NY

3:54 PM EDT on June 26, 2017 (GMT -0400)
Central Park

Weather History for KNYC - May, 2013

Change the Weather History Date:

Monday, May 20, 2013

  Actual Average Record
Temperature  
Mean Temperature 69 °F 64 °F  
Max Temperature 79 °F 72 °F 96 °F (1996)
Min Temperature 58 °F 55 °F 43 °F (2002)
Degree Days  
Heating Degree Days 0 4  
Month to date heating degree days 99 109  
Since 1 July heating degree days 4589 4702  
Cooling Degree Days 4 2  
Month to date cooling degree days 15 26  
Year to date cooling degree days 17 38  
Growing Degree Days 17 (Base 50)    
Moisture  
Dew Point 60 °F    
Average Humidity 82    
Maximum Humidity 100    
Minimum Humidity 64    
Precipitation  
Precipitation 0.00 in 0.14 in 2.03 in (1972)
Month to date precipitation 5.23 2.56  
Year to date precipitation 16.45 18.16  
Snow  
Snow 0.00 in 0.00 in 0.00 in (2002)
Month to date snowfall 0.0 0.0  
Since 1 July snowfall 26.1 25.8  
Snow Depth 0.00 in    
Sea Level Pressure  
Sea Level Pressure 30.08 in    
Wind  
Wind Speed 2 mph (SW)    
Max Wind Speed 10 mph    
Max Gust Speed 15 mph    
Visibility 4 miles    
Events Fog    
T = Trace of Precipitation, MM = Missing Value Source: NWS Daily Summary

Daily Weather History Graph

Daily Weather History Graph

Search for Another Location

Airport or City:

Trip Planner

Search our weather history database for the weather conditions in past years. The results will help you decide how hot, cold, wet, or windy it might be!

Date:

Astronomy

May. 20, 2013 Rise Set
Actual Time 5:34 AM EDT 8:11 PM EDT
Civil Twilight 5:02 AM EDT 8:43 PM EDT
Nautical Twilight 4:23 AM EDT 9:22 PM EDT
Astronomical Twilight 3:38 AM EDT 10:07 PM EDT
Moon 3:14 PM EDT (5/20) 2:29 AM EDT (5/20)
Length of Visible Light 15h 40m
Length of Day
14h 37m
Waxing Gibbous, 75% of the Moon is Illuminated
May 20
Waxing Gibbous
May 25
Full
May 31
Last Quarter
Jun 8
New
Jun 16
First Quarter

Hourly Weather History & Observations

Time (EDT) Temp. Dew Point Humidity Pressure Visibility Wind Dir Wind Speed Gust Speed Precip Events Conditions
12:46 AM 57.2 °F 57.2 °F 100% 30.19 in 0.8 mi Calm Calm - N/A   Mist
12:51 AM 57.9 °F 57.0 °F 97% 30.16 in 0.8 mi Calm Calm - N/A   Mist
1:41 AM 57.9 °F 57.0 °F 97% 30.16 in 1.2 mi Calm Calm - N/A   Mist
1:51 AM 57.9 °F 57.0 °F 97% 30.13 in 0.8 mi Calm Calm - N/A   Mist
1:56 AM 57.9 °F 57.0 °F 97% 30.16 in 1.0 mi Calm Calm - N/A   Overcast
2:08 AM 57.9 °F 57.0 °F 97% 30.15 in 0.8 mi Calm Calm - N/A   Overcast
2:51 AM 59.0 °F 57.0 °F 93% 30.11 in 0.5 mi Calm Calm - N/A Fog Fog
3:32 AM 59.0 °F 57.0 °F 93% 30.13 in 1.2 mi Calm Calm - N/A   Overcast
3:51 AM 59.0 °F 57.0 °F 93% 30.11 in 0.8 mi Calm Calm - N/A   Overcast
4:51 AM 59.0 °F 57.0 °F 93% 30.10 in 0.8 mi Calm Calm - N/A   Overcast
5:02 AM 59.0 °F 57.0 °F 93% 30.12 in 1.0 mi Calm Calm - N/A   Overcast
5:16 AM 59.0 °F 57.9 °F 96% 30.12 in 0.8 mi Calm Calm - N/A   Overcast
5:21 AM 59.0 °F 57.9 °F 96% 30.12 in 1.0 mi Calm Calm - N/A   Overcast
5:33 AM 59.0 °F 57.9 °F 96% 30.11 in 0.8 mi Calm Calm - N/A   Overcast
5:51 AM 59.0 °F 57.9 °F 96% 30.09 in 0.5 mi Calm Calm - N/A Fog Fog
6:51 AM 59.0 °F 57.9 °F 96% 30.09 in 0.2 mi Calm Calm - N/A Fog Fog
7:51 AM 60.1 °F 59.0 °F 96% 30.11 in 0.5 mi Calm Calm - N/A Fog Fog
8:41 AM 62.1 °F 60.1 °F 93% 30.14 in 1.2 mi Calm Calm - N/A   Overcast
8:51 AM 62.1 °F 60.1 °F 93% 30.12 in 1.5 mi Calm Calm - N/A   Overcast
8:59 AM 62.1 °F 60.1 °F 93% 30.14 in 1.5 mi Calm Calm - N/A   Overcast
9:09 AM 63.0 °F 60.1 °F 90% 30.14 in 2.0 mi Calm Calm - N/A   Overcast
9:29 AM 63.0 °F 61.0 °F 93% 30.13 in 3.0 mi Variable 4.6 mph - N/A   Overcast
9:51 AM 64.9 °F 62.1 °F 90% 30.10 in 3.0 mi Variable 3.5 mph - N/A   Overcast
10:17 AM 66.0 °F 61.0 °F 84% 30.13 in 3.0 mi Calm Calm - N/A   Haze
10:51 AM 68.0 °F 63.0 °F 84% 30.10 in 4.0 mi Variable 4.6 mph - N/A   Haze
11:51 AM 73.0 °F 64.0 °F 73% 30.07 in 8.0 mi Variable 3.5 mph - N/A   Scattered Clouds
12:51 PM 75.9 °F 64.0 °F 67% 30.04 in 9.0 mi Calm Calm - N/A   Partly Cloudy
1:35 PM 73.9 °F 63.0 °F 68% 30.05 in 9.0 mi Variable 3.5 mph - N/A   Mostly Cloudy
1:51 PM 73.9 °F 64.0 °F 71% 30.02 in 10.0 mi Calm Calm - N/A   Overcast
2:05 PM 75.9 °F 63.0 °F 64% 30.05 in 9.0 mi Calm Calm - N/A   Mostly Cloudy
2:51 PM 75.9 °F 64.0 °F 67% 30.01 in 10.0 mi North - - N/A   Scattered Clouds
3:51 PM 77.0 °F 64.9 °F 66% 30.01 in 10.0 mi Variable 4.6 mph - N/A   Scattered Clouds
4:51 PM 77.0 °F 64.4 °F 65% 30.00 in 10.0 mi North - - N/A   Partly Cloudy
5:51 PM 77.0 °F 64.0 °F 64% 29.97 in 10.0 mi Variable 3.5 mph - N/A   Mostly Cloudy
6:51 PM 75.9 °F 64.0 °F 67% 29.97 in 10.0 mi Variable 4.6 mph - N/A   Partly Cloudy
7:51 PM 75.0 °F 63.0 °F 66% 29.97 in 10.0 mi Variable 3.5 mph - N/A   Clear
8:51 PM 75.0 °F 63.0 °F 66% 29.97 in 10.0 mi Variable 3.5 mph - N/A   Clear
9:51 PM 73.0 °F 63.0 °F 71% 29.99 in 10.0 mi Calm Calm - N/A   Clear
10:51 PM 72.0 °F 64.0 °F 76% 29.98 in 9.0 mi SW 3.5 mph - N/A   Clear
11:51 PM 71.1 °F 63.0 °F 75% 29.97 in 8.0 mi Calm Calm - N/A   Clear